Moose, Wyoming, United States (83012)
Lat: 43.66N, Lon: 110.72W
Wx Zone: WYZ013
Local Info
Past Weather Observations for Sunday, August 28, 2016

NOTE: This archive is for the closest National Weather Service station to Moose. Information may differ from the station used for current weather conditions.

Click here for Long-term Archive

Time Weather Temperature Dewpoint Humidity Pressure Winds Precip Visibility
23:55
Clear
48°F / 9°C 30°F / -1°C 50% 30.36 in
(1028 mb)
N 8.1 mph
(N 13 kph)
- 10SM
23:35
Clear
50°F / 10°C 30°F / -1°C 47% 30.36 in
(1028 mb)
NNE 5.8 mph
(NNE 9 kph)
- 10SM
23:15
Clear
50°F / 10°C 30°F / -1°C 47% 30.36 in
(1028 mb)
Calm - 10SM
22:55
Clear
50°F / 10°C 30°F / -1°C 47% 30.36 in
(1028 mb)
Calm - 10SM
22:35
Clear
50°F / 10°C 30°F / -1°C 47% 30.36 in
(1028 mb)
NE 3.5 mph
(NE 6 kph)
- 10SM
22:15
Clear
48°F / 9°C 30°F / -1°C 50% 30.33 in
(1027 mb)
N 6.9 mph
(N 11 kph)
- 10SM
21:55
Clear
50°F / 10°C 32°F / 0°C 50% 30.33 in
(1027 mb)
N 4.6 mph
(N 7 kph)
- 10SM
21:35
Clear
52°F / 11°C 30°F / -1°C 44% 30.33 in
(1027 mb)
N 5.8 mph
(N 9 kph)
- 10SM
21:15
Clear
54°F / 12°C 34°F / 1°C 47% 30.33 in
(1027 mb)
NNE 6.9 mph
(NNE 11 kph)
- 10SM
20:55
Clear
55°F / 13°C 28°F / -2°C 36% 30.33 in
(1027 mb)
E 4.6 mph
(E 7 kph)
- 10SM
20:35
Clear
57°F / 14°C 28°F / -2°C 33% 30.33 in
(1027 mb)
E 4.6 mph
(E 7 kph)
- 10SM
20:15
Clear
59°F / 15°C 28°F / -2°C 31% 30.3 in
(1026 mb)
E 3.5 mph
(E 6 kph)
- 10SM
19:55
Clear
64°F / 18°C 30°F / -1°C 28% 30.3 in
(1026 mb)
WNW 8.1 mph
(WNW 13 kph)
- 10SM
17:51
Clear
79°F / 26°C 27°F / -3°C 15% 30.27 in
(1025 mb)
S 4.6 mph
(S 7 kph)
- 10SM
15:51
Clear
77°F / 25°C 28°F / -2°C 17% 30.24 in
(1024 mb)
SSW 11.5 mph
(SSW 19 kph)
- 10SM
14:51
Clear
81°F / 27°C 27°F / -3°C 14% 30.24 in
(1024 mb)
SSW 15 mph
(SSW 24 kph)
- 10SM
13:45
Clear
79°F / 26°C 27°F / -3°C 15% 30.24 in
(1024 mb)
SSW 9.2 mph
(SSW 15 kph)
- 10SM
12:45
Clear
79°F / 26°C 27°F / -3°C 15% 30.24 in
(1024 mb)
SW 10.4 mph
(SW 17 kph)
- 10SM
11:53
Clear
73°F / 23°C 25°F / -4°C 16% 30.27 in
(1025 mb)
SW 4.6 mph
(SW 7 kph)
- 10SM
10:48
Clear
66°F / 19°C 28°F / -2°C 24% 30.3 in
(1026 mb)
Calm - 10SM
09:45
Clear
57°F / 14°C 27°F / -3°C 31% 30.3 in
(1026 mb)
Calm - 10SM
08:48
Clear
54°F / 12°C 27°F / -3°C 35% 30.3 in
(1026 mb)
Calm - 10SM
07:45
Clear
48°F / 9°C 28°F / -2°C 46% 30.27 in
(1025 mb)
Calm - 10SM
06:57
Clear
39°F / 4°C 28°F / -2°C 65% 30.27 in
(1025 mb)
N 5.8 mph
(N 9 kph)
- 10SM
05:49
Clear
34°F / 1°C 27°F / -3°C 75% 30.24 in
(1024 mb)
Calm - 10SM
05:35
Clear
36°F / 2°C 27°F / -3°C 70% 30.24 in
(1024 mb)
N 4.6 mph
(N 7 kph)
- 10SM
05:15
Clear
36°F / 2°C 27°F / -3°C 70% 30.24 in
(1024 mb)
NNE 3.5 mph
(NNE 6 kph)
- 10SM
04:55
Clear
36°F / 2°C 27°F / -3°C 70% 30.24 in
(1024 mb)
NE 4.6 mph
(NE 7 kph)
- 10SM
04:35
Clear
36°F / 2°C 27°F / -3°C 70% 30.24 in
(1024 mb)
NE 4.6 mph
(NE 7 kph)
- 10SM
04:15
Clear
37°F / 3°C 27°F / -3°C 65% 30.24 in
(1024 mb)
NNE 3.5 mph
(NNE 6 kph)
- 10SM
03:55
Clear
36°F / 2°C 27°F / -3°C 70% 30.21 in
(1023 mb)
NNE 5.8 mph
(NNE 9 kph)
- 10SM
03:35
Clear
36°F / 2°C 27°F / -3°C 70% 30.21 in
(1023 mb)
N 9.2 mph
(N 15 kph)
- 10SM
03:15
Clear
37°F / 3°C 27°F / -3°C 65% 30.21 in
(1023 mb)
N 9.2 mph
(N 15 kph)
- 10SM
02:55
Clear
37°F / 3°C 27°F / -3°C 65% 30.21 in
(1023 mb)
NNE 9.2 mph
(NNE 15 kph)
- 10SM
02:35
Clear
37°F / 3°C 27°F / -3°C 65% 30.21 in
(1023 mb)
NNE 8.1 mph
(NNE 13 kph)
- 10SM
02:15
Clear
39°F / 4°C 27°F / -3°C 61% 30.21 in
(1023 mb)
N 8.1 mph
(N 13 kph)
- 10SM
01:55
Clear
39°F / 4°C 27°F / -3°C 61% 30.18 in
(1022 mb)
NNE 8.1 mph
(NNE 13 kph)
- 10SM
01:35
Clear
39°F / 4°C 27°F / -3°C 61% 30.18 in
(1022 mb)
NE 3.5 mph
(NE 6 kph)
- 10SM
01:15
Clear
39°F / 4°C 27°F / -3°C 61% 30.18 in
(1022 mb)
NE 3.5 mph
(NE 6 kph)
- 10SM
00:55
Clear
39°F / 4°C 27°F / -3°C 61% 30.18 in
(1022 mb)
N 6.9 mph
(N 11 kph)
- 10SM
00:35
Clear
41°F / 5°C 27°F / -3°C 57% 30.18 in
(1022 mb)
N 8.1 mph
(N 13 kph)
- 10SM
00:15
Clear
41°F / 5°C 27°F / -3°C 57% 30.18 in
(1022 mb)
N 8.1 mph
(N 13 kph)
- 10SM
Time Weather Temperature Dewpoint Humidity Pressure Winds Precip Visibility


Weather for websites

WeatherForYou.com, LLC is not responsible for any damages or problems caused by this service. Current weather conditions are obtained from the closest station including government and personal stations which may have varying degrees of accuracy. Weather forecasts are derived from the NOAA NDFD. Like all things, this site belongs to Jesus Christ... He just trusts us to maintain it. If you have any questions or comments email webmaster@weatherforyou.com

Copyright © 2016, WeatherForYou.com LLC. All rights reserved.